Location: Staunton
(38.1490°N, 79.0720°W)
Time: 01:01:09
(UTC-04:00)

ISS - Pass Details

Date: 12 May 2021
Orbit: 417 x 422 km, 51.6° (Epoch: 18 May)

Event Time Altitude Azimuth Distance (km) Brightness Sun altitude
Rises 04:38:59 0° 318° (NW) 2,369 0.0 -15.7°
Reaches altitude 10° 04:41:27 10° 335° (NNW) 1,503 -0.8 -15.3°
Maximum altitude 04:44:04 21° 26° (NNE) 1,016 -1.0 -14.9°
Drops below altitude 10° 04:46:42 10° 77° (ENE) 1,501 0.1 -14.5°
Sets 04:49:09 0° 95° (E) 2,363 0.8 -14.2°
